Time,TemperatureF,DewpointF,PressureIn,WindDirection,WindDirectionDegrees,WindSpeedMPH,WindSpeedGustMPH,Humidity,HourlyPrecipIn,Conditions,Clouds,dailyrainin,SoftwareType,DateUTC
2013-03-08 00:00:00,35.6,-4.9,29.56,North,10,5.4,8.7,17,-99.99,,---,-99.99,VWS V14.01,2013-03-08 05:00:00,
2013-03-08 00:01:00,35.6,-4.9,29.56,NNW,339,8.1,8.1,17,-99.99,,---,-99.99,VWS V14.01,2013-03-08 05:01:00,
2013-03-08 00:02:00,35.6,-4.9,29.56,NW,326,5.4,5.4,17,-99.99,,---,-99.99,VWS V14.01,2013-03-08 05:02:00,
2013-03-08 00:07:00,35.4,-5.1,29.56,NNW,334,8.1,8.1,17,-99.99,,---,-99.99,VWS V14.01,2013-03-08 05:07:00,
2013-03-08 00:13:00,35.4,-5.1,29.56,NW,326,5.8,8.3,17,-99.99,,---,-99.99,VWS V14.01,2013-03-08 05:13:00,
2013-03-08 00:18:00,35.6,-4.9,29.56,NNE,27,5.8,13.6,17,-99.99,,---,-99.99,VWS V14.01,2013-03-08 05:18:00,
2013-03-08 00:23:00,35.6,-4.9,29.56,NNW,334,12.3,12.3,17,-99.99,,---,-99.99,VWS V14.01,2013-03-08 05:23:00,
2013-03-08 00:28:00,35.6,-4.9,29.56,North,353,11.0,11.0,17,-99.99,,---,-99.99,VWS V14.01,2013-03-08 05:28:00,
2013-03-08 00:33:00,35.2,-5.2,29.56,NNW,342,5.4,6.3,17,-99.99,,---,-99.99,VWS V14.01,2013-03-08 05:33:00,
2013-03-08 00:38:00,34.9,-5.5,29.56,NNW,328,6.3,6.3,17,-99.99,,---,-99.99,VWS V14.01,2013-03-08 05:38:00,
2013-03-08 00:43:00,34.7,-5.6,29.56,NW,324,5.8,5.8,17,-99.99,,---,-99.99,VWS V14.01,2013-03-08 05:43:00,
2013-03-08 00:48:00,34.5,-5.8,29.56,NW,322,8.7,8.7,17,-99.99,,---,-99.99,VWS V14.01,2013-03-08 05:48:00,
2013-03-08 00:53:00,34.5,-5.8,29.56,NNW,334,8.7,8.7,17,-99.99,,---,-99.99,VWS V14.01,2013-03-08 05:53:00,
2013-03-08 00:58:00,34.7,-5.6,29.56,NNW,329,11.0,11.0,17,-99.99,,---,-99.99,VWS V14.01,2013-03-08 05:58:00,
2013-03-08 01:03:00,34.5,-5.8,29.56,NNE,23,8.7,8.7,17,-99.99,,---,-99.99,VWS V14.01,2013-03-08 06:03:00,
2013-03-08 01:08:00,34.3,-5.9,29.56,NW,314,8.1,8.1,17,-99.99,,---,-99.99,VWS V14.01,2013-03-08 06:08:00,
2013-03-08 01:13:00,34.2,-6.1,29.56,NNW,346,4.0,10.5,17,-99.99,,---,-99.99,VWS V14.01,2013-03-08 06:13:00,
2013-03-08 01:18:00,34.2,-6.1,29.56,NW,324,8.3,8.3,17,-99.99,,---,-99.99,VWS V14.01,2013-03-08 06:18:00,
2013-03-08 01:24:00,34.2,-6.1,29.56,NNW,345,4.0,11.0,17,-99.99,,---,-99.99,VWS V14.01,2013-03-08 06:24:00,
2013-03-08 01:29:00,34.0,-6.2,29.56,NW,324,8.1,8.7,17,-99.99,,---,-99.99,VWS V14.01,2013-03-08 06:29:00,
2013-03-08 01:34:00,33.8,-6.4,29.56,NW,325,5.8,10.5,17,-99.99,,---,-99.99,VWS V14.01,2013-03-08 06:34:00,
2013-03-08 01:39:00,33.8,-6.4,29.56,NNW,343,11.0,11.0,17,-99.99,,---,-99.99,VWS V14.01,2013-03-08 06:39:00,
2013-03-08 01:44:00,33.8,-6.4,29.56,NNW,327,5.8,8.1,17,-99.99,,---,-99.99,VWS V14.01,2013-03-08 06:44:00,
2013-03-08 01:49:00,33.8,-6.4,29.56,NW,324,11.0,11.0,17,-99.99,,---,-99.99,VWS V14.01,2013-03-08 06:49:00,
2013-03-08 01:54:00,33.6,-5.3,29.56,North,353,8.3,8.7,18,-99.99,,---,-99.99,VWS V14.01,2013-03-08 06:54:00,
2013-03-08 01:59:00,33.6,-5.3,29.56,NNW,339,7.6,7.6,18,-99.99,,---,-99.99,VWS V14.01,2013-03-08 06:59:00,
2013-03-08 02:04:00,33.4,-5.5,29.56,NW,319,8.7,8.7,18,-99.99,,---,-99.99,VWS V14.01,2013-03-08 07:04:00,
2013-03-08 02:09:00,33.3,-5.7,29.56,North,4,8.7,8.7,18,-99.99,,---,-99.99,VWS V14.01,2013-03-08 07:09:00,
2013-03-08 02:14:00,33.3,-5.7,29.56,NNW,327,17.4,17.4,18,-99.99,,---,-99.99,VWS V14.01,2013-03-08 07:14:00,
2013-03-08 02:26:00,33.1,-5.8,29.56,North,357,8.3,8.3,18,-99.99,,---,-99.99,VWS V14.01,2013-03-08 07:26:00,
2013-03-08 02:31:00,32.9,-5.9,29.56,NW,325,12.3,12.3,18,-99.99,,---,-99.99,VWS V14.01,2013-03-08 07:31:00,
2013-03-08 02:36:00,32.9,-5.9,29.56,NNW,334,8.3,11.0,18,-99.99,,---,-99.99,VWS V14.01,2013-03-08 07:36:00,
2013-03-08 02:41:00,32.9,-5.9,29.56,NNW,340,8.7,10.5,18,-99.99,,---,-99.99,VWS V14.01,2013-03-08 07:41:00,
2013-03-08 02:46:00,32.7,-6.1,29.53,NNE,18,5.8,8.7,18,-99.99,,---,-99.99,VWS V14.01,2013-03-08 07:46:00,
2013-03-08 02:51:00,32.5,-6.2,29.53,NNW,338,7.6,10.5,18,-99.99,,---,-99.99,VWS V14.01,2013-03-08 07:51:00,
2013-03-08 02:56:00,32.5,-6.2,29.53,NNW,343,8.1,11.0,18,-99.99,,---,-99.99,VWS V14.01,2013-03-08 07:56:00,
2013-03-08 03:02:00,32.5,-6.2,29.53,NNW,329,8.3,8.7,18,-99.99,,---,-99.99,VWS V14.01,2013-03-08 08:02:00,
2013-03-08 03:07:00,32.4,-6.4,29.53,NNW,333,10.5,12.8,18,-99.99,,---,-99.99,VWS V14.01,2013-03-08 08:07:00,
2013-03-08 03:12:00,32.4,-6.4,29.53,NW,325,8.3,10.5,18,-99.99,,---,-99.99,VWS V14.01,2013-03-08 08:12:00,
2013-03-08 03:17:00,32.4,-6.4,29.56,NNW,339,7.6,10.5,18,-99.99,,---,-99.99,VWS V14.01,2013-03-08 08:17:00,
2013-03-08 03:22:00,32.4,-6.4,29.56,NNW,335,7.6,8.7,18,-99.99,,---,-99.99,VWS V14.01,2013-03-08 08:22:00,
2013-03-08 03:27:00,32.2,-6.6,29.56,NW,313,6.3,6.3,18,-99.99,,---,-99.99,VWS V14.01,2013-03-08 08:27:00,
2013-03-08 03:32:00,32.2,-6.6,29.53,WNW,296,8.7,8.7,18,-99.99,,---,-99.99,VWS V14.01,2013-03-08 08:32:00,
2013-03-08 03:37:00,32.2,-6.6,29.53,NNW,344,8.1,8.1,18,-99.99,,---,-99.99,VWS V14.01,2013-03-08 08:37:00,
2013-03-08 03:42:00,32.2,-6.6,29.53,NW,321,12.3,12.3,18,-99.99,,---,-99.99,VWS V14.01,2013-03-08 08:42:00,
2013-03-08 03:47:00,32.4,-6.4,29.53,NW,326,8.7,8.7,18,-99.99,,---,-99.99,VWS V14.01,2013-03-08 08:47:00,
2013-03-08 03:52:00,32.4,-6.4,29.53,NW,322,14.5,14.5,18,-99.99,,---,-99.99,VWS V14.01,2013-03-08 08:52:00,
2013-03-08 03:57:00,32.2,-6.6,29.53,NNW,335,8.7,8.7,18,-99.99,,---,-99.99,VWS V14.01,2013-03-08 08:57:00,
2013-03-08 04:02:00,32.2,-6.6,29.53,NW,321,11.9,14.1,18,-99.99,,---,-99.99,VWS V14.01,2013-03-08 09:02:00,
2013-03-08 04:07:00,32.4,-6.4,29.53,NNW,334,12.8,15.0,18,-99.99,,---,-99.99,VWS V14.01,2013-03-08 09:07:00,
2013-03-08 04:13:00,32.2,-6.6,29.53,North,357,11.0,12.8,18,-99.99,,---,-99.99,VWS V14.01,2013-03-08 09:13:00,
2013-03-08 04:18:00,32.2,-6.6,29.53,NW,312,15.4,15.4,18,-99.99,,---,-99.99,VWS V14.01,2013-03-08 09:18:00,
2013-03-08 04:23:00,32.2,-6.6,29.53,North,353,10.1,15.9,18,-99.99,,---,-99.99,VWS V14.01,2013-03-08 09:23:00,
2013-03-08 04:28:00,32.2,-6.6,29.53,NW,310,8.3,10.1,18,-99.99,,---,-99.99,VWS V14.01,2013-03-08 09:28:00,
2013-03-08 04:33:00,32.2,-6.6,29.53,NW,326,8.7,12.8,18,-99.99,,---,-99.99,VWS V14.01,2013-03-08 09:33:00,
2013-03-08 04:38:00,32.2,-6.6,29.53,WNW,294,5.8,13.2,18,-99.99,,---,-99.99,VWS V14.01,2013-03-08 09:38:00,
2013-03-08 04:43:00,32.2,-6.6,29.53,NW,312,6.3,6.3,18,-99.99,,---,-99.99,VWS V14.01,2013-03-08 09:43:00,
2013-03-08 04:48:00,32.4,-6.4,29.53,NW,323,12.8,12.8,18,-99.99,,---,-99.99,VWS V14.01,2013-03-08 09:48:00,
2013-03-08 04:53:00,32.4,-6.4,29.53,NNW,329,8.7,12.8,18,-99.99,,---,-99.99,VWS V14.01,2013-03-08 09:53:00,
2013-03-08 04:58:00,32.7,-6.1,29.53,NNW,340,11.4,15.0,18,-99.99,,---,-99.99,VWS V14.01,2013-03-08 09:58:00,
2013-03-08 05:03:00,32.7,-6.1,29.53,NNW,335,14.5,15.9,18,-99.99,,---,-99.99,VWS V14.01,2013-03-08 10:03:00,
2013-03-08 05:08:00,32.7,-6.1,29.53,North,353,12.8,12.8,18,-99.99,,---,-99.99,VWS V14.01,2013-03-08 10:08:00,
2013-03-08 05:13:00,32.7,-6.1,29.53,NW,324,12.8,15.0,18,-99.99,,---,-99.99,VWS V14.01,2013-03-08 10:13:00,
2013-03-08 05:18:00,32.9,-5.9,29.53,NW,311,13.6,15.4,18,-99.99,,---,-99.99,VWS V14.01,2013-03-08 10:18:00,
2013-03-08 05:24:00,33.1,-5.8,29.53,NW,305,10.5,15.0,18,-99.99,,---,-99.99,VWS V14.01,2013-03-08 10:24:00,
2013-03-08 05:29:00,33.1,-5.8,29.53,NW,321,6.3,10.5,18,-99.99,,---,-99.99,VWS V14.01,2013-03-08 10:29:00,
2013-03-08 05:34:00,33.1,-5.8,29.53,NNW,333,8.7,10.1,18,-99.99,,---,-99.99,VWS V14.01,2013-03-08 10:34:00,
2013-03-08 05:39:00,33.3,-5.7,29.53,North,357,8.7,8.7,18,-99.99,,---,-99.99,VWS V14.01,2013-03-08 10:39:00,
2013-03-08 05:44:00,33.1,-5.8,29.53,WNW,298,6.7,8.7,18,-99.99,,---,-99.99,VWS V14.01,2013-03-08 10:44:00,
2013-03-08 05:49:00,33.3,-5.7,29.53,NNW,330,8.7,10.5,18,-99.99,,---,-99.99,VWS V14.01,2013-03-08 10:49:00,
2013-03-08 05:54:00,33.3,-5.7,29.53,North,0,8.3,8.3,18,-99.99,,---,-99.99,VWS V14.01,2013-03-08 10:54:00,
2013-03-08 05:59:00,33.3,-5.7,29.53,NNW,331,14.5,14.5,18,-99.99,,---,-99.99,VWS V14.01,2013-03-08 10:59:00,
2013-03-08 06:04:00,33.3,-5.7,29.53,NNW,332,19.7,19.7,18,-99.99,,---,-99.99,VWS V14.01,2013-03-08 11:04:00,
2013-03-08 06:09:00,33.3,-5.7,29.53,North,353,8.7,11.4,18,-99.99,,---,-99.99,VWS V14.01,2013-03-08 11:09:00,
2013-03-08 06:14:00,33.3,-5.7,29.56,NNW,336,10.1,10.1,18,-99.99,,---,-99.99,VWS V14.01,2013-03-08 11:14:00,
2013-03-08 06:19:00,33.3,-5.7,29.56,NW,322,16.3,16.3,18,-99.99,,---,-99.99,VWS V14.01,2013-03-08 11:19:00,
2013-03-08 06:24:00,33.1,-5.8,29.56,North,2,8.7,10.1,18,-99.99,,---,-99.99,VWS V14.01,2013-03-08 11:24:00,
2013-03-08 06:29:00,33.1,-5.8,29.56,NW,320,9.2,10.5,18,-99.99,,---,-99.99,VWS V14.01,2013-03-08 11:29:00,
2013-03-08 06:34:00,32.7,-6.1,29.56,NW,316,12.8,16.3,18,-99.99,,---,-99.99,VWS V14.01,2013-03-08 11:34:00,
2013-03-08 06:40:00,32.5,-6.2,29.56,NW,323,13.2,15.0,18,-99.99,,---,-99.99,VWS V14.01,2013-03-08 11:40:00,
2013-03-08 06:45:00,32.5,-6.2,29.56,North,353,9.6,15.0,18,-99.99,,---,-99.99,VWS V14.01,2013-03-08 11:45:00,
2013-03-08 06:50:00,32.5,-6.2,29.56,NE,45,8.7,17.9,18,-99.99,,---,-99.99,VWS V14.01,2013-03-08 11:50:00,
2013-03-08 06:55:00,32.5,-6.2,29.56,NNE,15,8.7,9.6,18,-99.99,,---,-99.99,VWS V14.01,2013-03-08 11:55:00,
2013-03-08 07:00:00,32.2,-6.6,29.56,NNW,334,15.4,15.4,18,-99.99,,---,-99.99,VWS V14.01,2013-03-08 12:00:00,
2013-03-08 07:05:00,32.0,-6.7,29.56,NW,318,12.3,13.2,18,-99.99,,---,-99.99,VWS V14.01,2013-03-08 12:05:00,
2013-03-08 07:10:00,32.0,-6.7,29.56,NE,42,12.8,12.8,18,-99.99,,---,-99.99,VWS V14.01,2013-03-08 12:10:00,
2013-03-08 07:15:00,32.2,-6.6,29.56,NNW,346,16.8,24.2,18,-99.99,,---,-99.99,VWS V14.01,2013-03-08 12:15:00,
2013-03-08 07:20:00,32.4,-6.4,29.56,NW,326,10.1,10.5,18,-99.99,,---,-99.99,VWS V14.01,2013-03-08 12:20:00,
2013-03-08 07:25:00,32.4,-6.4,29.56,NW,322,11.0,15.4,18,-99.99,,---,-99.99,VWS V14.01,2013-03-08 12:25:00,
2013-03-08 07:30:00,32.5,-6.2,29.56,North,2,13.2,16.8,18,-99.99,,---,-99.99,VWS V14.01,2013-03-08 12:30:00,
2013-03-08 07:36:00,32.5,-6.2,29.56,NNW,333,10.1,12.8,18,-99.99,,---,-99.99,VWS V14.01,2013-03-08 12:36:00,
2013-03-08 07:41:00,32.4,-6.4,29.56,NNW,336,9.6,17.0,18,-99.99,,---,-99.99,VWS V14.01,2013-03-08 12:41:00,
2013-03-08 07:46:00,32.4,-6.4,29.56,NW,318,15.0,17.9,18,-99.99,,---,-99.99,VWS V14.01,2013-03-08 12:46:00,
2013-03-08 07:51:00,32.4,-6.4,29.56,NW,314,8.1,8.1,18,-99.99,,---,-99.99,VWS V14.01,2013-03-08 12:51:00,
2013-03-08 07:56:00,32.2,-6.6,29.56,North,0,15.0,15.9,18,-99.99,,---,-99.99,VWS V14.01,2013-03-08 12:56:00,
2013-03-08 08:01:00,32.2,-6.6,29.59,West,276,11.0,19.2,18,-99.99,,---,-99.99,VWS V14.01,2013-03-08 13:01:00,
2013-03-08 08:09:00,32.4,-6.4,29.59,North,353,11.4,17.9,18,-99.99,,---,-99.99,VWS V14.01,2013-03-08 13:09:00,
2013-03-08 08:14:00,32.4,-6.4,29.56,NW,325,8.3,12.8,18,-99.99,,---,-99.99,VWS V14.01,2013-03-08 13:14:00,
2013-03-08 08:19:00,32.5,-6.2,29.56,North,0,8.1,8.1,18,-99.99,,---,-99.99,VWS V14.01,2013-03-08 13:19:00,
2013-03-08 08:24:00,32.5,-6.2,29.56,NW,314,13.2,13.2,18,-99.99,,---,-99.99,VWS V14.01,2013-03-08 13:24:00,
2013-03-08 08:29:00,32.9,-5.9,29.56,NNW,337,12.8,13.2,18,-99.99,,---,-99.99,VWS V14.01,2013-03-08 13:29:00,
2013-03-08 08:34:00,32.9,-5.9,29.56,NW,316,13.6,13.6,18,-99.99,,---,-99.99,VWS V14.01,2013-03-08 13:34:00,
2013-03-08 08:39:00,33.1,-5.8,29.56,NNW,327,15.0,19.7,18,-99.99,,---,-99.99,VWS V14.01,2013-03-08 13:39:00,
2013-03-08 08:44:00,33.3,-5.7,29.59,NNW,335,13.2,13.2,18,-99.99,,---,-99.99,VWS V14.01,2013-03-08 13:44:00,
2013-03-08 08:49:00,33.4,-5.5,29.59,NW,307,17.0,17.0,18,-99.99,,---,-99.99,VWS V14.01,2013-03-08 13:49:00,
2013-03-08 08:55:00,33.6,-5.3,29.59,NNW,341,10.5,14.5,18,-99.99,,---,-99.99,VWS V14.01,2013-03-08 13:55:00,
2013-03-08 09:00:00,34.0,-6.2,29.56,NNW,328,8.3,11.0,17,-99.99,,---,-99.99,VWS V14.01,2013-03-08 14:00:00,
2013-03-08 09:05:00,34.2,-6.1,29.56,WNW,299,15.4,15.4,17,-99.99,,---,-99.99,VWS V14.01,2013-03-08 14:05:00,
2013-03-08 09:10:00,34.2,-6.1,29.56,NNW,335,14.5,16.8,17,-99.99,,---,-99.99,VWS V14.01,2013-03-08 14:10:00,
2013-03-08 09:15:00,34.2,-6.1,29.56,NNW,340,14.5,17.0,17,-99.99,,---,-99.99,VWS V14.01,2013-03-08 14:15:00,
2013-03-08 09:20:00,34.2,-6.1,29.56,NNW,343,12.8,13.2,17,-99.99,,---,-99.99,VWS V14.01,2013-03-08 14:20:00,
2013-03-08 09:25:00,34.2,-6.1,29.56,NNW,343,12.8,12.8,17,-99.99,,---,-99.99,VWS V14.01,2013-03-08 14:25:00,
2013-03-08 09:31:00,34.2,-6.1,29.56,NW,319,16.8,17.0,17,-99.99,,---,-99.99,VWS V14.01,2013-03-08 14:31:00,
2013-03-08 09:36:00,34.3,-5.9,29.56,NNW,327,16.8,16.8,17,-99.99,,---,-99.99,VWS V14.01,2013-03-08 14:36:00,
2013-03-08 09:41:00,34.5,-5.8,29.56,NW,321,18.3,19.7,17,-99.99,,---,-99.99,VWS V14.01,2013-03-08 14:41:00,
2013-03-08 09:46:00,35.1,-5.3,29.56,WNW,303,11.0,11.0,17,-99.99,,---,-99.99,VWS V14.01,2013-03-08 14:46:00,
2013-03-08 09:51:00,35.1,-5.3,29.56,NNW,341,15.4,15.4,17,-99.99,,---,-99.99,VWS V14.01,2013-03-08 14:51:00,
2013-03-08 09:56:00,35.1,-5.3,29.56,NW,317,15.4,15.4,17,-99.99,,---,-99.99,VWS V14.01,2013-03-08 14:56:00,
2013-03-08 10:01:00,35.4,-5.1,29.56,NW,306,17.4,17.4,17,-99.99,,---,-99.99,VWS V14.01,2013-03-08 15:01:00,
2013-03-08 10:07:00,35.8,-4.8,29.56,North,357,8.7,15.4,17,-99.99,,---,-99.99,VWS V14.01,2013-03-08 15:07:00,
2013-03-08 10:12:00,36.1,-4.5,29.56,NNW,334,13.6,21.5,17,-99.99,,---,-99.99,VWS V14.01,2013-03-08 15:12:00,
2013-03-08 10:17:00,36.5,-4.2,29.56,North,353,12.3,13.2,17,-99.99,,---,-99.99,VWS V14.01,2013-03-08 15:17:00,
2013-03-08 10:22:00,36.5,-4.2,29.56,NNW,332,21.5,21.5,17,-99.99,,---,-99.99,VWS V14.01,2013-03-08 15:22:00,
2013-03-08 10:27:00,36.5,-4.2,29.56,NNW,328,15.0,15.0,17,-99.99,,---,-99.99,VWS V14.01,2013-03-08 15:27:00,
2013-03-08 10:32:00,36.3,-4.3,29.56,North,353,8.1,17.4,17,-99.99,,---,-99.99,VWS V14.01,2013-03-08 15:32:00,
2013-03-08 10:37:00,36.3,-4.3,29.56,WSW,254,8.1,15.4,17,-99.99,,---,-99.99,VWS V14.01,2013-03-08 15:37:00,
2013-03-08 10:42:00,36.1,-4.5,29.56,NNW,329,11.0,15.0,17,-99.99,,---,-99.99,VWS V14.01,2013-03-08 15:42:00,
2013-03-08 10:48:00,36.7,-4.0,29.56,NW,306,13.2,16.8,17,-99.99,,---,-99.99,VWS V14.01,2013-03-08 15:48:00,
2013-03-08 10:53:00,37.2,-3.6,29.56,NNW,342,18.3,18.3,17,-99.99,,---,-99.99,VWS V14.01,2013-03-08 15:53:00,
2013-03-08 10:58:00,37.4,-4.7,29.56,NW,325,11.9,17.0,16,-99.99,,---,-99.99,VWS V14.01,2013-03-08 15:58:00,
2013-03-08 11:03:00,37.6,-4.5,29.59,North,0,12.3,12.3,16,-99.99,,---,-99.99,VWS V14.01,2013-03-08 16:03:00,
2013-03-08 11:08:00,37.6,-4.5,29.59,NNW,331,10.5,10.5,16,-99.99,,---,-99.99,VWS V14.01,2013-03-08 16:08:00,
2013-03-08 11:13:00,37.8,-4.4,29.59,NNW,341,10.5,17.4,16,-99.99,,---,-99.99,VWS V14.01,2013-03-08 16:13:00,
2013-03-08 11:18:00,38.5,-3.8,29.59,NW,322,8.3,8.3,16,-99.99,,---,-99.99,VWS V14.01,2013-03-08 16:18:00,
2013-03-08 11:24:00,38.8,-3.5,29.59,NW,323,14.1,14.1,16,-99.99,,---,-99.99,VWS V14.01,2013-03-08 16:24:00,
2013-03-08 11:29:00,38.8,-3.5,29.56,North,353,4.0,11.0,16,-99.99,,---,-99.99,VWS V14.01,2013-03-08 16:29:00,
2013-03-08 11:34:00,38.3,-4.0,29.56,NNW,345,15.4,15.4,16,-99.99,,---,-99.99,VWS V14.01,2013-03-08 16:34:00,
2013-03-08 11:39:00,38.1,-4.1,29.56,North,350,15.9,18.8,16,-99.99,,---,-99.99,VWS V14.01,2013-03-08 16:39:00,
2013-03-08 11:44:00,38.7,-3.7,29.56,NNW,328,11.4,11.4,16,-99.99,,---,-99.99,VWS V14.01,2013-03-08 16:44:00,
2013-03-08 11:49:00,38.8,-3.5,29.56,NNW,328,15.0,15.0,16,-99.99,,---,-99.99,VWS V14.01,2013-03-08 16:49:00,
2013-03-08 11:54:00,39.0,-3.4,29.56,NW,326,8.7,17.9,16,-99.99,,---,-99.99,VWS V14.01,2013-03-08 16:54:00,
2013-03-08 11:59:00,39.6,-2.9,29.56,NNW,345,11.9,12.8,16,-99.99,,---,-99.99,VWS V14.01,2013-03-08 16:59:00,
2013-03-08 12:04:00,39.9,-2.6,29.56,NNW,327,12.8,13.2,16,-99.99,,---,-99.99,VWS V14.01,2013-03-08 17:04:00,
2013-03-08 12:10:00,40.1,-2.5,29.56,North,0,4.9,16.8,16,-99.99,,---,-99.99,VWS V14.01,2013-03-08 17:10:00,
2013-03-08 12:15:00,39.9,-2.6,29.56,NNW,333,7.6,15.0,16,-99.99,,---,-99.99,VWS V14.01,2013-03-08 17:15:00,
2013-03-08 12:20:00,40.1,-2.5,29.56,NW,318,15.4,17.4,16,-99.99,,---,-99.99,VWS V14.01,2013-03-08 17:20:00,
2013-03-08 12:25:00,39.9,-2.6,29.56,NW,322,15.0,15.0,16,-99.99,,---,-99.99,VWS V14.01,2013-03-08 17:25:00,
2013-03-08 12:30:00,40.3,-2.3,29.56,NNW,343,13.2,13.2,16,-99.99,,---,-99.99,VWS V14.01,2013-03-08 17:30:00,
2013-03-08 12:35:00,40.5,-2.2,29.56,NNE,26,12.3,16.8,16,-99.99,,---,-99.99,VWS V14.01,2013-03-08 17:35:00,
2013-03-08 12:40:00,40.3,-2.3,29.56,NW,325,8.7,15.4,16,-99.99,,---,-99.99,VWS V14.01,2013-03-08 17:40:00,
2013-03-08 12:45:00,40.5,-2.2,29.56,NNW,339,12.8,16.8,16,-99.99,,---,-99.99,VWS V14.01,2013-03-08 17:45:00,
2013-03-08 12:51:00,40.6,-2.0,29.56,NW,313,13.2,14.1,16,-99.99,,---,-99.99,VWS V14.01,2013-03-08 17:51:00,
2013-03-08 12:56:00,41.5,-1.3,29.56,North,353,5.8,5.8,16,-99.99,,---,-99.99,VWS V14.01,2013-03-08 17:56:00,
2013-03-08 13:01:00,41.5,-1.3,29.56,NNW,341,8.7,10.5,16,-99.99,,---,-99.99,VWS V14.01,2013-03-08 18:01:00,
2013-03-08 13:06:00,41.2,-1.6,29.56,NNW,333,6.7,10.1,16,-99.99,,---,-99.99,VWS V14.01,2013-03-08 18:06:00,
2013-03-08 13:11:00,41.2,-1.6,29.56,NNW,343,15.0,15.0,16,-99.99,,---,-99.99,VWS V14.01,2013-03-08 18:11:00,
2013-03-08 13:17:00,41.2,-1.6,29.56,NNW,343,6.3,12.8,16,-99.99,,---,-99.99,VWS V14.01,2013-03-08 18:17:00,
2013-03-08 13:22:00,41.2,-1.6,29.56,NNW,337,12.3,12.3,16,-99.99,,---,-99.99,VWS V14.01,2013-03-08 18:22:00,
2013-03-08 13:27:00,41.7,-1.2,29.56,NW,320,18.8,18.8,16,-99.99,,---,-99.99,VWS V14.01,2013-03-08 18:27:00,
2013-03-08 13:32:00,41.5,-1.3,29.53,North,353,17.9,17.9,16,-99.99,,---,-99.99,VWS V14.01,2013-03-08 18:32:00,
2013-03-08 13:41:00,41.5,-1.3,29.53,NW,315,12.3,12.3,16,-99.99,,---,-99.99,VWS V14.01,2013-03-08 18:41:00,
2013-03-08 13:46:00,41.4,-1.5,29.56,North,0,8.7,11.0,16,-99.99,,---,-99.99,VWS V14.01,2013-03-08 18:46:00,
2013-03-08 13:51:00,41.7,-1.2,29.56,NE,48,11.0,11.0,16,-99.99,,---,-99.99,VWS V14.01,2013-03-08 18:51:00,
2013-03-08 13:56:00,42.1,-0.9,29.56,NNW,336,15.4,15.4,16,-99.99,,---,-99.99,VWS V14.01,2013-03-08 18:56:00,
2013-03-08 14:01:00,42.3,-0.7,29.53,NNW,329,14.5,14.5,16,-99.99,,---,-99.99,VWS V14.01,2013-03-08 19:01:00,
2013-03-08 14:06:00,42.4,-0.6,29.53,NW,308,10.5,13.2,16,-99.99,,---,-99.99,VWS V14.01,2013-03-08 19:06:00,
2013-03-08 14:11:00,42.6,-0.4,29.53,NNW,343,12.8,12.8,16,-99.99,,---,-99.99,VWS V14.01,2013-03-08 19:11:00,
2013-03-08 14:16:00,43.0,-1.5,29.56,NNW,341,15.4,17.9,15,-99.99,,---,-99.99,VWS V14.01,2013-03-08 19:16:00,
2013-03-08 14:22:00,43.2,-1.4,29.56,NNW,346,8.7,13.2,15,-99.99,,---,-99.99,VWS V14.01,2013-03-08 19:22:00,
2013-03-08 14:27:00,43.2,-1.4,29.56,North,353,10.1,12.8,15,-99.99,,---,-99.99,VWS V14.01,2013-03-08 19:27:00,
2013-03-08 14:32:00,43.2,-1.4,29.56,North,7,8.7,12.3,15,-99.99,,---,-99.99,VWS V14.01,2013-03-08 19:32:00,
2013-03-08 14:37:00,43.2,-1.4,29.56,North,353,7.6,8.7,15,-99.99,,---,-99.99,VWS V14.01,2013-03-08 19:37:00,
2013-03-08 14:42:00,43.0,-1.5,29.56,NE,34,6.3,6.3,15,-99.99,,---,-99.99,VWS V14.01,2013-03-08 19:42:00,
2013-03-08 14:47:00,43.0,-1.5,29.56,NNW,343,4.0,4.0,15,-99.99,,---,-99.99,VWS V14.01,2013-03-08 19:47:00,
2013-03-08 14:52:00,43.0,-1.5,29.56,NNW,343,6.7,7.6,15,-99.99,,---,-99.99,VWS V14.01,2013-03-08 19:52:00,
2013-03-08 14:57:00,42.8,-1.6,29.56,NNW,340,10.1,10.1,15,-99.99,,---,-99.99,VWS V14.01,2013-03-08 19:57:00,
2013-03-08 15:03:00,42.8,-1.6,29.56,NW,311,6.3,6.3,15,-99.99,,---,-99.99,VWS V14.01,2013-03-08 20:03:00,
2013-03-08 15:08:00,42.8,-1.6,29.56,NW,311,6.3,6.3,15,-99.99,,---,-99.99,VWS V14.01,2013-03-08 20:08:00,
2013-03-08 15:13:00,42.8,-1.6,29.59,North,357,8.1,8.1,15,-99.99,,---,-99.99,VWS V14.01,2013-03-08 20:13:00,
2013-03-08 15:18:00,42.8,-1.6,29.59,West,267,8.7,8.7,15,-99.99,,---,-99.99,VWS V14.01,2013-03-08 20:18:00,
2013-03-08 15:23:00,42.8,-1.6,29.59,North,0,10.5,10.5,15,-99.99,,---,-99.99,VWS V14.01,2013-03-08 20:23:00,
2013-03-08 15:28:00,42.8,-1.6,29.59,NNW,343,5.8,12.8,15,-99.99,,---,-99.99,VWS V14.01,2013-03-08 20:28:00,
2013-03-08 15:33:00,42.8,-1.6,29.59,NNW,341,5.4,5.4,15,-99.99,,---,-99.99,VWS V14.01,2013-03-08 20:33:00,
2013-03-08 15:39:00,42.8,-1.6,29.59,NW,321,15.0,15.0,15,-99.99,,---,-99.99,VWS V14.01,2013-03-08 20:39:00,
2013-03-08 15:44:00,42.8,-1.6,29.59,North,3,17.0,17.0,15,-99.99,,---,-99.99,VWS V14.01,2013-03-08 20:44:00,
2013-03-08 15:49:00,42.8,-1.6,29.59,North,357,5.8,6.3,15,-99.99,,---,-99.99,VWS V14.01,2013-03-08 20:49:00,
2013-03-08 15:54:00,42.8,-1.6,29.59,NNW,339,11.4,11.4,15,-99.99,,---,-99.99,VWS V14.01,2013-03-08 20:54:00,
2013-03-08 15:59:00,42.8,-1.6,29.59,North,1,8.1,8.7,15,-99.99,,---,-99.99,VWS V14.01,2013-03-08 20:59:00,
2013-03-08 16:04:00,42.8,-1.6,29.59,NNW,331,8.7,8.7,15,-99.99,,---,-99.99,VWS V14.01,2013-03-08 21:04:00,
2013-03-08 16:09:00,42.8,-1.6,29.59,NW,324,15.4,17.4,15,-99.99,,---,-99.99,VWS V14.01,2013-03-08 21:09:00,
2013-03-08 16:14:00,42.8,-1.6,29.59,NNW,335,11.0,11.0,15,-99.99,,---,-99.99,VWS V14.01,2013-03-08 21:14:00,
2013-03-08 16:20:00,42.8,-1.6,29.59,NW,314,7.6,15.4,15,-99.99,,---,-99.99,VWS V14.01,2013-03-08 21:20:00,
2013-03-08 16:25:00,42.8,-1.6,29.59,NW,319,15.4,15.4,15,-99.99,,---,-99.99,VWS V14.01,2013-03-08 21:25:00,
2013-03-08 16:30:00,42.8,-1.6,29.59,North,0,9.2,9.2,15,-99.99,,---,-99.99,VWS V14.01,2013-03-08 21:30:00,
2013-03-08 16:35:00,42.8,-1.6,29.59,North,11,9.2,13.2,15,-99.99,,---,-99.99,VWS V14.01,2013-03-08 21:35:00,
2013-03-08 16:40:00,42.8,-1.6,29.59,NNE,19,10.5,17.0,15,-99.99,,---,-99.99,VWS V14.01,2013-03-08 21:40:00,
2013-03-08 16:45:00,42.8,-1.6,29.59,North,353,10.1,11.0,15,-99.99,,---,-99.99,VWS V14.01,2013-03-08 21:45:00,
2013-03-08 16:50:00,43.0,-1.5,29.59,NW,326,6.7,11.4,15,-99.99,,---,-99.99,VWS V14.01,2013-03-08 21:50:00,
2013-03-08 16:55:00,43.0,-1.5,29.59,NNW,332,15.4,15.4,15,-99.99,,---,-99.99,VWS V14.01,2013-03-08 21:55:00,
2013-03-08 17:00:00,43.2,-1.4,29.62,NNW,348,8.7,11.4,15,-99.99,,---,-99.99,VWS V14.01,2013-03-08 22:00:00,
2013-03-08 17:06:00,43.2,-1.4,29.62,North,9,5.4,8.3,15,-99.99,,---,-99.99,VWS V14.01,2013-03-08 22:06:00,
2013-03-08 17:11:00,43.2,-1.4,29.62,NNW,346,15.0,15.0,15,-99.99,,---,-99.99,VWS V14.01,2013-03-08 22:11:00,
2013-03-08 17:16:00,43.0,-1.5,29.62,NNW,331,7.6,10.5,15,-99.99,,---,-99.99,VWS V14.01,2013-03-08 22:16:00,
2013-03-08 17:21:00,43.0,-1.5,29.62,North,6,12.8,15.0,15,-99.99,,---,-99.99,VWS V14.01,2013-03-08 22:21:00,
2013-03-08 17:26:00,42.8,-1.6,29.62,NNW,342,17.4,17.4,15,-99.99,,---,-99.99,VWS V14.01,2013-03-08 22:26:00,
2013-03-08 17:31:00,42.8,-1.6,29.62,NNW,339,13.2,15.9,15,-99.99,,---,-99.99,VWS V14.01,2013-03-08 22:31:00,
2013-03-08 17:36:00,42.8,-1.6,29.62,NNW,338,13.2,13.2,15,-99.99,,---,-99.99,VWS V14.01,2013-03-08 22:36:00,
2013-03-08 17:42:00,42.8,-1.6,29.62,North,4,8.1,11.4,15,-99.99,,---,-99.99,VWS V14.01,2013-03-08 22:42:00,
2013-03-08 17:47:00,42.6,-0.4,29.62,NNE,14,13.6,13.6,16,-99.99,,---,-99.99,VWS V14.01,2013-03-08 22:47:00,
2013-03-08 17:52:00,42.6,-0.4,29.62,North,0,8.1,8.1,16,-99.99,,---,-99.99,VWS V14.01,2013-03-08 22:52:00,
2013-03-08 17:57:00,42.6,-0.4,29.62,North,11,15.4,15.4,16,-99.99,,---,-99.99,VWS V14.01,2013-03-08 22:57:00,
2013-03-08 18:02:00,42.6,-0.4,29.62,North,357,5.4,8.1,16,-99.99,,---,-99.99,VWS V14.01,2013-03-08 23:02:00,
2013-03-08 18:07:00,42.4,-0.6,29.62,North,353,10.1,12.8,16,-99.99,,---,-99.99,VWS V14.01,2013-03-08 23:07:00,
2013-03-08 18:12:00,42.4,-0.6,29.62,North,0,8.3,16.8,16,-99.99,,---,-99.99,VWS V14.01,2013-03-08 23:12:00,
2013-03-08 18:18:00,42.4,-0.6,29.62,NW,326,15.4,15.4,16,-99.99,,---,-99.99,VWS V14.01,2013-03-08 23:18:00,
2013-03-08 18:23:00,42.3,-0.7,29.62,NNE,15,10.1,10.1,16,-99.99,,---,-99.99,VWS V14.01,2013-03-08 23:23:00,
2013-03-08 18:28:00,42.4,-0.6,29.62,North,1,5.4,5.4,16,-99.99,,---,-99.99,VWS V14.01,2013-03-08 23:28:00,
2013-03-08 18:33:00,42.1,-0.9,29.62,NNW,330,8.3,9.2,16,-99.99,,---,-99.99,VWS V14.01,2013-03-08 23:33:00,
2013-03-08 18:38:00,42.1,-0.9,29.62,NNW,329,7.6,7.6,16,-99.99,,---,-99.99,VWS V14.01,2013-03-08 23:38:00,
2013-03-08 18:43:00,42.1,-0.9,29.62,North,0,5.8,5.8,16,-99.99,,---,-99.99,VWS V14.01,2013-03-08 23:43:00,
2013-03-08 18:48:00,41.7,-1.2,29.62,NNW,330,4.5,5.8,16,-99.99,,---,-99.99,VWS V14.01,2013-03-08 23:48:00,
2013-03-08 18:53:00,41.7,-1.2,29.62,NNW,341,7.6,10.5,16,-99.99,,---,-99.99,VWS V14.01,2013-03-08 23:53:00,
2013-03-08 18:58:00,41.4,-1.5,29.65,NNW,330,6.3,8.7,16,-99.99,,---,-99.99,VWS V14.01,2013-03-08 23:58:00,
2013-03-08 19:03:00,41.0,-1.7,29.65,NNW,328,5.4,8.1,16,-99.99,,---,-99.99,VWS V14.01,2013-03-09 00:03:00,
2013-03-08 19:08:00,40.8,-1.9,29.65,NW,324,8.7,11.0,16,-99.99,,---,-99.99,VWS V14.01,2013-03-09 00:08:00,
2013-03-08 19:14:00,40.6,-2.0,29.65,NW,325,4.9,6.3,16,-99.99,,---,-99.99,VWS V14.01,2013-03-09 00:14:00,
2013-03-08 19:19:00,40.5,-2.2,29.65,North,357,7.6,8.3,16,-99.99,,---,-99.99,VWS V14.01,2013-03-09 00:19:00,
2013-03-08 19:24:00,40.3,-2.3,29.65,WNW,298,5.4,6.3,16,-99.99,,---,-99.99,VWS V14.01,2013-03-09 00:24:00,
2013-03-08 19:29:00,40.1,-2.5,29.65,North,8,8.7,9.6,16,-99.99,,---,-99.99,VWS V14.01,2013-03-09 00:29:00,
2013-03-08 19:34:00,40.3,-2.3,29.65,NNW,329,4.9,5.4,16,-99.99,,---,-99.99,VWS V14.01,2013-03-09 00:34:00,
2013-03-08 19:39:00,39.9,-2.6,29.65,NNW,343,8.3,11.0,16,-99.99,,---,-99.99,VWS V14.01,2013-03-09 00:39:00,
2013-03-08 19:44:00,39.9,-2.6,29.65,NW,324,6.3,10.1,16,-99.99,,---,-99.99,VWS V14.01,2013-03-09 00:44:00,
2013-03-08 19:50:00,39.9,-2.6,29.65,North,0,5.8,10.5,16,-99.99,,---,-99.99,VWS V14.01,2013-03-09 00:50:00,
2013-03-08 19:55:00,40.1,-2.5,29.65,North,0,7.6,8.3,16,-99.99,,---,-99.99,VWS V14.01,2013-03-09 00:55:00,
2013-03-08 20:00:00,39.9,-2.6,29.65,NW,323,5.4,7.2,16,-99.99,,---,-99.99,VWS V14.01,2013-03-09 01:00:00,
2013-03-08 20:05:00,39.9,-2.6,29.65,North,0,5.4,5.8,16,-99.99,,---,-99.99,VWS V14.01,2013-03-09 01:05:00,
2013-03-08 20:10:00,39.9,-2.6,29.65,WNW,303,4.0,6.3,16,-99.99,,---,-99.99,VWS V14.01,2013-03-09 01:10:00,
2013-03-08 20:15:00,39.9,-2.6,29.65,NNW,337,8.3,8.3,16,-99.99,,---,-99.99,VWS V14.01,2013-03-09 01:15:00,
2013-03-08 20:20:00,39.9,-2.6,29.65,NNW,337,10.1,11.0,16,-99.99,,---,-99.99,VWS V14.01,2013-03-09 01:20:00,
2013-03-08 20:26:00,39.9,-2.6,29.65,NNW,341,5.4,8.1,16,-99.99,,---,-99.99,VWS V14.01,2013-03-09 01:26:00,
2013-03-08 20:31:00,39.9,-2.6,29.68,NNW,335,6.3,12.3,16,-99.99,,---,-99.99,VWS V14.01,2013-03-09 01:31:00,
2013-03-08 20:36:00,39.9,-2.6,29.68,NNW,328,5.8,7.6,16,-99.99,,---,-99.99,VWS V14.01,2013-03-09 01:36:00,
2013-03-08 20:41:00,39.7,-2.8,29.68,North,8,7.6,8.1,16,-99.99,,---,-99.99,VWS V14.01,2013-03-09 01:41:00,
2013-03-08 20:46:00,39.9,-2.6,29.65,NW,320,3.6,8.7,16,-99.99,,---,-99.99,VWS V14.01,2013-03-09 01:46:00,
2013-03-08 20:51:00,39.7,-2.8,29.65,NNW,334,10.1,11.0,16,-99.99,,---,-99.99,VWS V14.01,2013-03-09 01:51:00,
2013-03-08 20:56:00,39.6,-2.9,29.65,NNW,331,7.6,7.6,16,-99.99,,---,-99.99,VWS V14.01,2013-03-09 01:56:00,
2013-03-08 21:02:00,39.6,-2.9,29.68,NNW,335,7.2,7.2,16,-99.99,,---,-99.99,VWS V14.01,2013-03-09 02:02:00,
2013-03-08 21:07:00,39.4,-3.1,29.68,NNE,19,6.3,8.7,16,-99.99,,---,-99.99,VWS V14.01,2013-03-09 02:07:00,
2013-03-08 21:12:00,39.4,-3.1,29.68,NNW,342,4.0,5.4,16,-99.99,,---,-99.99,VWS V14.01,2013-03-09 02:12:00,
2013-03-08 21:17:00,39.0,-3.4,29.68,North,0,2.7,7.6,16,-99.99,,---,-99.99,VWS V14.01,2013-03-09 02:17:00,
2013-03-08 21:22:00,38.7,-3.7,29.68,NW,326,6.3,6.3,16,-99.99,,---,-99.99,VWS V14.01,2013-03-09 02:22:00,
2013-03-08 21:27:00,38.5,-3.8,29.71,North,0,4.9,5.4,16,-99.99,,---,-99.99,VWS V14.01,2013-03-09 02:27:00,
2013-03-08 21:32:00,38.5,-3.8,29.71,NNW,327,8.1,9.6,16,-99.99,,---,-99.99,VWS V14.01,2013-03-09 02:32:00,
2013-03-08 21:38:00,38.3,-4.0,29.71,NNW,331,12.8,12.8,16,-99.99,,---,-99.99,VWS V14.01,2013-03-09 02:38:00,
2013-03-08 21:43:00,38.1,-4.1,29.71,NW,322,8.3,8.7,16,-99.99,,---,-99.99,VWS V14.01,2013-03-09 02:43:00,
2013-03-08 21:48:00,38.1,-4.1,29.71,NNW,348,8.1,8.1,16,-99.99,,---,-99.99,VWS V14.01,2013-03-09 02:48:00,
2013-03-08 21:53:00,38.1,-4.1,29.71,NNW,341,8.1,8.1,16,-99.99,,---,-99.99,VWS V14.01,2013-03-09 02:53:00,
2013-03-08 21:58:00,37.9,-4.2,29.71,North,353,8.1,8.7,16,-99.99,,---,-99.99,VWS V14.01,2013-03-09 02:58:00,
2013-03-08 22:03:00,37.8,-4.4,29.71,NNW,344,8.1,13.6,16,-99.99,,---,-99.99,VWS V14.01,2013-03-09 03:03:00,
2013-03-08 22:08:00,37.9,-4.2,29.71,North,357,6.3,7.6,16,-99.99,,---,-99.99,VWS V14.01,2013-03-09 03:08:00,
2013-03-08 22:13:00,37.8,-4.4,29.68,NNW,341,5.4,8.3,16,-99.99,,---,-99.99,VWS V14.01,2013-03-09 03:13:00,
2013-03-08 22:18:00,37.6,-4.5,29.68,North,5,8.1,8.1,16,-99.99,,---,-99.99,VWS V14.01,2013-03-09 03:18:00,
2013-03-08 22:24:00,37.6,-4.5,29.68,NNW,335,7.6,7.6,16,-99.99,,---,-99.99,VWS V14.01,2013-03-09 03:24:00,
2013-03-08 22:29:00,37.6,-4.5,29.68,North,357,6.3,6.7,16,-99.99,,---,-99.99,VWS V14.01,2013-03-09 03:29:00,
2013-03-08 22:34:00,37.0,-3.7,29.68,NNE,25,8.7,8.7,17,-99.99,,---,-99.99,VWS V14.01,2013-03-09 03:34:00,
2013-03-08 22:39:00,36.9,-3.9,29.68,NNE,25,2.7,8.3,17,-99.99,,---,-99.99,VWS V14.01,2013-03-09 03:39:00,
2013-03-08 22:44:00,36.9,-3.9,29.71,NW,323,2.7,3.6,17,-99.99,,---,-99.99,VWS V14.01,2013-03-09 03:44:00,
2013-03-08 22:49:00,36.5,-4.2,29.71,NW,322,6.3,6.3,17,-99.99,,---,-99.99,VWS V14.01,2013-03-09 03:49:00,
2013-03-08 22:54:00,36.5,-4.2,29.71,NNW,342,4.0,6.3,17,-99.99,,---,-99.99,VWS V14.01,2013-03-09 03:54:00,
2013-03-08 22:59:00,36.3,-4.3,29.71,NNW,344,6.3,6.3,17,-99.99,,---,-99.99,VWS V14.01,2013-03-09 03:59:00,
2013-03-08 23:04:00,36.1,-4.5,29.71,NNW,329,6.3,8.1,17,-99.99,,---,-99.99,VWS V14.01,2013-03-09 04:04:00,
2013-03-08 23:09:00,35.8,-4.8,29.71,NNW,344,5.4,7.6,17,-99.99,,---,-99.99,VWS V14.01,2013-03-09 04:09:00,
2013-03-08 23:14:00,36.0,-4.6,29.71,NW,313,7.6,8.1,17,-99.99,,---,-99.99,VWS V14.01,2013-03-09 04:14:00,
2013-03-08 23:19:00,36.0,-4.6,29.71,NNW,336,6.3,6.3,17,-99.99,,---,-99.99,VWS V14.01,2013-03-09 04:19:00,
2013-03-08 23:25:00,36.0,-4.6,29.71,NW,320,5.4,6.3,17,-99.99,,---,-99.99,VWS V14.01,2013-03-09 04:25:00,
2013-03-08 23:30:00,36.0,-4.6,29.68,NNW,336,5.8,5.8,17,-99.99,,---,-99.99,VWS V14.01,2013-03-09 04:30:00,
2013-03-08 23:35:00,35.8,-4.8,29.68,NNW,337,6.3,6.3,17,-99.99,,---,-99.99,VWS V14.01,2013-03-09 04:35:00,
2013-03-08 23:40:00,35.8,-4.8,29.68,NNW,346,4.0,8.1,17,-99.99,,---,-99.99,VWS V14.01,2013-03-09 04:40:00,
2013-03-08 23:45:00,35.8,-4.8,29.71,NNW,338,3.1,5.8,17,-99.99,,---,-99.99,VWS V14.01,2013-03-09 04:45:00,
2013-03-08 23:50:00,35.6,-4.9,29.71,NNW,328,5.4,5.4,17,-99.99,,---,-99.99,VWS V14.01,2013-03-09 04:50:00,
2013-03-08 23:55:00,35.4,-5.1,29.71,NNW,329,0.0,0.0,17,-99.99,,---,-99.99,VWS V14.01,2013-03-09 04:55:00,